Skip Page Navigation
NASA JPL Caltech
NASA Logo - Jet Propulsion Laboratory + View the NASA Portal
+ Near-Earth Object (NEO) Program
Search JPL
JPL Home Earth Solar System Stars & Galaxies Technology
JPL Solar System Dynamics
BODIES ORBITS EPHEMERIDES TOOLS PHYSICAL DATA DISCOVERY FAQ SITE MAP
JPL Small-Body Database Browser
Search: [ help ]  
317255 (2002 DJ5)
Classification: Apollo [NEO, PHA]          SPK-ID: 2317255
Ephemeris | Orbit Diagram | Orbital Elements | Physical Parameters | Discovery Circumstances | Close-Approach Data ]

[ hide orbit diagram ]
Orbit Diagram
Note: Make sure you have Java enabled on your browser to see the applet. This applet is provided as a 3D orbit visualization tool. The applet was implemented using 2-body methods, and hence should not be used for determining accurate long-term trajectories (over several years or decades) or planetary encounter circumstances. For accurate long-term ephemerides, please instead use our Horizons system.
Orbit Viewer

Additional Notes: the orbits shown in the applet are color coded. The planets are white lines, and the asteroid/comet is a blue line. The bright white line indicates the portion of the orbit that is above the ecliptic plane, and the darker portion is below the ecliptic plane. Likewise for the asteroid/comet orbit, the light blue indicates the portion above the ecliptic plane, and the dark blue the portion below the ecliptic plane.

Orbit Viewer applet originally written and kindly provided by Osamu Ajiki (AstroArts), and further modified by Ron Baalke (JPL).


Orbital Elements at Epoch 2456400.5 (2013-Apr-18.0) TDB
Reference: JPL 20 (heliocentric ecliptic J2000)
 Element Value Uncertainty (1-sigma)   Units 
e .5678155336476431 6.5638e-07  
a 1.400484539903637 2.6358e-08 AU
q .6052676635129793 9.2504e-07 AU
i 6.437578306967391 4.3903e-05 deg
node 348.0076245227258 0.00011912 deg
peri 296.0727479602572 0.00015834 deg
M 183.369264136929 7.2626e-05 deg
tp 2456697.515889059014
(2014-Feb-09.01588906)
0.00012179 JED
period 605.3630447655316
1.66
1.709e-05
4.679e-08
d
yr
n .5946844676312124 1.6789e-08 deg/d
Q 2.195701416294295 4.1325e-08 AU
  Orbit Determination Parameters
   # obs. used (total)      70  
   data-arc span      3689 days (10.10 yr)  
   first obs. used      2002-02-21  
   last obs. used      2012-03-29  
   planetary ephem.      DE405  
   SB-pert. ephem.      SB405-CPV-2  
   condition code      0  
   fit RMS      .70913  
   data source      ORB  
   producer      Otto Matic  
   solution date      2013-Apr-29 15:41:43  

Additional Information
 Earth MOID = .0397546 AU 
 T_jup = 4.564 
[ show covariance matrix ]

Ephemeris | Orbit Diagram | Orbital Elements | Physical Parameters | Discovery Circumstances | Close-Approach Data ]

Physical Parameter Table
Parameter Symbol Value Units Sigma Reference Notes
absolute magnitude H 20.079 mag .8476 20 autocmod 2.5c

317255 (2002 DJ5)          Discovered 2002-Feb-21 by Spacewatch at Kitt Peak (291)
Reference: 20120308/Numbers.arcLast Updated: 2012-03-13

[ show close-approach data ]
Ephemeris | Orbit Diagram | Orbital Elements | Physical Parameters | Discovery Circumstances | Close-Approach Data ]
ABOUT SSD CREDITS/AWARDS PRIVACY/COPYRIGHT GLOSSARY LINKS
FirstGov 2013-Jun-19 08:06 UT
(server date/time)  
NASA Home Page
Site Manager:   Donald K. Yeomans
Webmaster  Alan B. Chamberlin